GALAXY 28 (G-28)

Last updated on Tue Jul 01 2025 00:02:44 GMT+0000 (Coordinated Universal Time)

1 28702U 05022A 25181.55024394 -.00000188 00000+0 00000+0 0 9993 2 28702 2.3918 83.3708 0002682 22.7962 282.0819 1.00272380 48453
UTC large
Height (km)
Speed (km/s)
/
Latitude / Longitude
Inclination (degrees)
Orbital Period (minutes)
Azimuth
Elevation
Range (km)
Doppler Factor

Next 0 passes for location: London (51.5072 / 0.1276)

Sorry there are no passes over London.